Time,TemperatureF,DewpointF,PressureIn,WindDirection,WindDirectionDegrees,WindSpeedMPH,WindSpeedGustMPH,Humidity,HourlyPrecipIn,Conditions,Clouds,dailyrainin,SoftwareType,DateUTC
2013-09-06 00:00:00,83.0,0.0,29.98,ESE,114,2.0,5.0,31,-99.99,,,-99.99,,2013-09-06 07:00:00,
2013-09-06 00:08:00,82.0,0.0,29.97,ESE,123,3.0,6.0,32,-99.99,,,-99.99,,2013-09-06 07:08:00,
2013-09-06 00:16:00,82.0,0.0,29.98,SE,131,3.0,5.0,33,-99.99,,,-99.99,,2013-09-06 07:16:00,
2013-09-06 00:24:00,82.0,0.0,29.98,ESE,120,3.0,5.0,30,-99.99,,,-99.99,,2013-09-06 07:24:00,
2013-09-06 00:32:00,82.0,0.0,29.98,ESE,111,3.0,7.0,33,-99.99,,,-99.99,,2013-09-06 07:32:00,
2013-09-06 00:40:00,82.0,0.0,29.98,ENE,72,6.0,7.0,31,-99.99,,,-99.99,,2013-09-06 07:40:00,
2013-09-06 00:48:00,82.0,0.0,29.98,NNE,21,2.0,7.0,31,-99.99,,,-99.99,,2013-09-06 07:48:00,
2013-09-06 00:56:00,81.0,0.0,29.98,NNE,29,2.0,5.0,33,-99.99,,,-99.99,,2013-09-06 07:56:00,
2013-09-06 01:04:00,81.0,0.0,29.98,NE,38,2.0,3.0,32,-99.99,,,-99.99,,2013-09-06 08:04:00,
2013-09-06 01:12:00,81.0,0.0,29.98,NE,46,3.0,6.0,32,-99.99,,,-99.99,,2013-09-06 08:12:00,
2013-09-06 01:20:00,81.0,0.0,29.98,NE,50,3.0,6.0,31,-99.99,,,-99.99,,2013-09-06 08:20:00,
2013-09-06 01:28:00,81.0,0.0,29.97,NE,50,2.0,5.0,31,-99.99,,,-99.99,,2013-09-06 08:28:00,
2013-09-06 01:36:00,80.0,0.0,29.97,North,10,1.0,3.0,33,-99.99,,,-99.99,,2013-09-06 08:36:00,
2013-09-06 01:44:00,80.0,0.0,29.97,NE,49,5.0,5.0,32,-99.99,,,-99.99,,2013-09-06 08:44:00,
2013-09-06 01:52:00,80.0,0.0,29.97,North,2,1.0,6.0,33,-99.99,,,-99.99,,2013-09-06 08:52:00,
2013-09-06 02:00:00,80.0,0.0,29.97,NE,35,2.0,5.0,32,-99.99,,,-99.99,,2013-09-06 09:00:00,
2013-09-06 02:08:00,80.0,0.0,29.97,North,1,2.0,5.0,32,-99.99,,,-99.99,,2013-09-06 09:08:00,
2013-09-06 02:16:00,80.0,0.0,29.97,NE,35,2.0,3.0,33,-99.99,,,-99.99,,2013-09-06 09:16:00,
2013-09-06 02:24:00,80.0,0.0,29.97,NE,41,3.0,5.0,33,-99.99,,,-99.99,,2013-09-06 09:24:00,
2013-09-06 02:32:00,80.0,0.0,29.97,NE,41,3.0,5.0,33,-99.99,,,-99.99,,2013-09-06 09:32:00,
2013-09-06 02:40:00,80.0,0.0,29.97,North,357,2.0,5.0,34,-99.99,,,-99.99,,2013-09-06 09:40:00,
2013-09-06 02:48:00,80.0,0.0,29.96,North,1,2.0,5.0,33,-99.99,,,-99.99,,2013-09-06 09:48:00,
2013-09-06 02:56:00,80.0,0.0,29.96,NE,35,3.0,5.0,33,-99.99,,,-99.99,,2013-09-06 09:56:00,
2013-09-06 03:04:00,79.0,0.0,29.96,North,1,2.0,5.0,33,-99.99,,,-99.99,,2013-09-06 10:04:00,
2013-09-06 03:12:00,79.0,0.0,29.96,NE,46,5.0,6.0,34,-99.99,,,-99.99,,2013-09-06 10:12:00,
2013-09-06 03:20:00,79.0,0.0,29.96,NE,44,3.0,6.0,33,-99.99,,,-99.99,,2013-09-06 10:20:00,
2013-09-06 03:28:00,80.0,0.0,29.96,NE,44,5.0,6.0,34,-99.99,,,-99.99,,2013-09-06 10:28:00,
2013-09-06 03:36:00,79.0,0.0,29.96,ENE,63,3.0,6.0,33,-99.99,,,-99.99,,2013-09-06 10:36:00,
2013-09-06 03:44:00,79.0,0.0,29.96,ENE,68,5.0,5.0,33,-99.99,,,-99.99,,2013-09-06 10:44:00,
2013-09-06 03:52:00,79.0,0.0,29.96,ENE,69,6.0,6.0,33,-99.99,,,-99.99,,2013-09-06 10:52:00,
2013-09-06 04:00:00,79.0,0.0,29.96,ESE,122,6.0,6.0,32,-99.99,,,-99.99,,2013-09-06 11:00:00,
2013-09-06 04:08:00,79.0,0.0,29.96,ENE,76,7.0,9.0,33,-99.99,,,-99.99,,2013-09-06 11:08:00,
2013-09-06 04:16:00,79.0,0.0,29.96,East,92,7.0,9.0,33,-99.99,,,-99.99,,2013-09-06 11:16:00,
2013-09-06 04:24:00,78.0,0.0,29.96,ENE,77,7.0,9.0,35,-99.99,,,-99.99,,2013-09-06 11:24:00,
2013-09-06 04:32:00,78.0,0.0,29.96,ESE,103,6.0,9.0,35,-99.99,,,-99.99,,2013-09-06 11:32:00,
2013-09-06 04:40:00,77.0,0.0,29.96,SE,126,3.0,8.0,35,-99.99,,,-99.99,,2013-09-06 11:40:00,
2013-09-06 04:48:00,77.0,0.0,29.96,ESE,105,5.0,9.0,36,-99.99,,,-99.99,,2013-09-06 11:48:00,
2013-09-06 04:56:00,77.0,0.0,29.96,ESE,119,5.0,7.0,36,-99.99,,,-99.99,,2013-09-06 11:56:00,
2013-09-06 05:04:00,77.0,0.0,29.96,ESE,113,3.0,6.0,36,-99.99,,,-99.99,,2013-09-06 12:04:00,
2013-09-06 05:12:00,77.0,0.0,29.96,SE,133,3.0,6.0,37,-99.99,,,-99.99,,2013-09-06 12:12:00,
2013-09-06 05:20:00,77.0,0.0,29.96,ESE,111,3.0,5.0,38,-99.99,,,-99.99,,2013-09-06 12:20:00,
2013-09-06 05:28:00,76.0,0.0,29.97,NE,47,5.0,6.0,36,-99.99,,,-99.99,,2013-09-06 12:28:00,
2013-09-06 05:36:00,74.0,0.0,29.97,North,357,3.0,5.0,37,-99.99,,,-99.99,,2013-09-06 12:36:00,
2013-09-06 05:44:00,74.0,0.0,29.97,North,357,3.0,5.0,38,-99.99,,,-99.99,,2013-09-06 12:44:00,
2013-09-06 05:52:00,74.0,0.0,29.97,North,352,3.0,5.0,38,-99.99,,,-99.99,,2013-09-06 12:52:00,
2013-09-06 06:04:00,74.0,0.0,29.97,North,357,3.0,6.0,38,-99.99,,,-99.99,,2013-09-06 13:04:00,
2013-09-06 06:12:00,74.0,0.0,29.97,North,356,2.0,5.0,38,-99.99,,,-99.99,,2013-09-06 13:12:00,
2013-09-06 06:20:00,74.0,0.0,29.98,NE,44,3.0,5.0,38,-99.99,,,-99.99,,2013-09-06 13:20:00,
2013-09-06 06:28:00,74.0,0.0,29.98,North,354,2.0,5.0,38,-99.99,,,-99.99,,2013-09-06 13:28:00,
2013-09-06 06:36:00,74.0,0.0,29.98,North,6,5.0,5.0,37,-99.99,,,-99.99,,2013-09-06 13:36:00,
2013-09-06 06:45:00,75.0,0.0,29.98,North,355,2.0,5.0,38,-99.99,,,-99.99,,2013-09-06 13:45:00,
2013-09-06 06:52:00,75.0,0.0,29.98,NNE,31,3.0,5.0,38,-99.99,,,-99.99,,2013-09-06 13:52:00,
2013-09-06 07:00:00,75.0,0.0,29.98,NE,47,5.0,6.0,37,-99.99,,,-99.99,,2013-09-06 14:00:00,
2013-09-06 07:08:00,74.0,0.0,29.99,North,9,2.0,6.0,38,-99.99,,,-99.99,,2013-09-06 14:08:00,
2013-09-06 07:16:00,74.0,0.0,29.99,NE,42,3.0,3.0,37,-99.99,,,-99.99,,2013-09-06 14:16:00,
2013-09-06 07:24:00,75.0,0.0,29.99,NE,40,6.0,7.0,36,-99.99,,,-99.99,,2013-09-06 14:24:00,
2013-09-06 07:32:00,76.0,0.0,29.99,NE,43,6.0,7.0,36,-99.99,,,-99.99,,2013-09-06 14:32:00,
2013-09-06 07:40:00,76.0,0.0,30.00,NE,44,7.0,7.0,35,-99.99,,,-99.99,,2013-09-06 14:40:00,
2013-09-06 07:48:00,76.0,0.0,30.00,NE,40,5.0,7.0,34,-99.99,,,-99.99,,2013-09-06 14:48:00,
2013-09-06 07:56:00,77.0,0.0,30.00,North,357,2.0,7.0,36,-99.99,,,-99.99,,2013-09-06 14:56:00,
2013-09-06 08:04:00,78.0,0.0,30.00,NE,38,3.0,5.0,34,-99.99,,,-99.99,,2013-09-06 15:04:00,
2013-09-06 08:16:00,78.0,0.0,30.00,NNE,18,3.0,5.0,33,-99.99,,,-99.99,,2013-09-06 15:16:00,
2013-09-06 08:24:00,78.0,0.0,30.00,NE,45,2.0,5.0,34,-99.99,,,-99.99,,2013-09-06 15:24:00,
2013-09-06 08:32:00,79.0,0.0,30.00,NE,48,2.0,5.0,32,-99.99,,,-99.99,,2013-09-06 15:32:00,
2013-09-06 08:40:00,80.0,0.0,30.00,NE,52,2.0,5.0,31,-99.99,,,-99.99,,2013-09-06 15:40:00,
2013-09-06 08:48:00,79.0,0.0,30.00,NW,312,0.0,5.0,32,-99.99,,,-99.99,,2013-09-06 15:48:00,
2013-09-06 08:56:00,81.0,0.0,30.01,East,84,2.0,2.0,33,-99.99,,,-99.99,,2013-09-06 15:56:00,
2013-09-06 09:04:00,82.0,0.0,30.01,ENE,58,5.0,5.0,32,-99.99,,,-99.99,,2013-09-06 16:04:00,
2013-09-06 09:12:00,82.0,0.0,30.01,SE,128,0.0,7.0,32,-99.99,,,-99.99,,2013-09-06 16:12:00,
2013-09-06 09:20:00,83.0,0.0,30.01,NNE,26,1.0,5.0,30,-99.99,,,-99.99,,2013-09-06 16:20:00,
2013-09-06 09:28:00,83.0,0.0,30.01,East,90,3.0,7.0,30,-99.99,,,-99.99,,2013-09-06 16:28:00,
2013-09-06 09:36:00,84.0,0.0,30.01,SSE,154,3.0,6.0,29,-99.99,,,-99.99,,2013-09-06 16:36:00,
2013-09-06 09:44:00,85.0,0.0,30.01,SSE,152,5.0,9.0,30,-99.99,,,-99.99,,2013-09-06 16:44:00,
2013-09-06 09:52:00,85.0,0.0,30.00,SSE,155,7.0,10.0,29,-99.99,,,-99.99,,2013-09-06 16:52:00,
2013-09-06 10:00:00,86.0,0.0,30.00,SE,126,3.0,9.0,31,-99.99,,,-99.99,,2013-09-06 17:00:00,
2013-09-06 10:16:00,88.0,0.0,30.00,South,182,7.0,13.0,27,-99.99,,,-99.99,,2013-09-06 17:16:00,
2013-09-06 10:24:00,88.0,0.0,30.00,South,174,9.0,13.0,26,-99.99,,,-99.99,,2013-09-06 17:24:00,
2013-09-06 10:32:00,89.0,0.0,30.00,South,170,5.0,12.0,28,-99.99,,,-99.99,,2013-09-06 17:32:00,
2013-09-06 10:40:00,89.0,0.0,30.00,South,179,8.0,12.0,25,-99.99,,,-99.99,,2013-09-06 17:40:00,
2013-09-06 10:48:00,90.0,0.0,30.00,SSW,203,3.0,12.0,24,-99.99,,,-99.99,,2013-09-06 17:48:00,
2013-09-06 10:56:00,90.0,0.0,30.00,SSW,195,7.0,15.0,25,-99.99,,,-99.99,,2013-09-06 17:56:00,
2013-09-06 11:04:00,90.0,0.0,30.00,SSE,159,3.0,15.0,24,-99.99,,,-99.99,,2013-09-06 18:04:00,
2013-09-06 11:12:00,91.0,0.0,29.99,SSE,162,6.0,12.0,24,-99.99,,,-99.99,,2013-09-06 18:12:00,
2013-09-06 11:20:00,92.0,0.0,29.99,SSE,161,9.0,12.0,23,-99.99,,,-99.99,,2013-09-06 18:20:00,
2013-09-06 11:28:00,92.0,0.0,29.99,SE,146,7.0,15.0,22,-99.99,,,-99.99,,2013-09-06 18:28:00,
2013-09-06 11:36:00,94.0,0.0,29.99,South,187,9.0,14.0,20,-99.99,,,-99.99,,2013-09-06 18:36:00,
2013-09-06 11:44:00,94.0,0.0,29.98,SSE,155,14.0,18.0,21,-99.99,,,-99.99,,2013-09-06 18:44:00,
2013-09-06 11:56:00,95.0,0.0,29.98,SSE,162,8.0,18.0,20,-99.99,,,-99.99,,2013-09-06 18:56:00,
2013-09-06 12:04:00,95.0,0.0,29.98,South,182,14.0,20.0,18,-99.99,,,-99.99,,2013-09-06 19:04:00,
2013-09-06 12:12:00,96.0,0.0,29.98,SSE,158,8.0,20.0,19,-99.99,,,-99.99,,2013-09-06 19:12:00,
2013-09-06 12:20:00,96.0,0.0,29.98,SW,230,8.0,17.0,19,-99.99,,,-99.99,,2013-09-06 19:20:00,
2013-09-06 12:28:00,95.0,0.0,29.97,SSE,154,9.0,17.0,19,-99.99,,,-99.99,,2013-09-06 19:28:00,
2013-09-06 12:36:00,96.0,0.0,29.98,East,94,1.0,17.0,19,-99.99,,,-99.99,,2013-09-06 19:36:00,
2013-09-06 12:44:00,98.0,0.0,29.97,NE,52,2.0,10.0,19,-99.99,,,-99.99,,2013-09-06 19:44:00,
2013-09-06 12:52:00,98.0,0.0,29.97,South,173,15.0,20.0,21,-99.99,,,-99.99,,2013-09-06 19:52:00,
2013-09-06 13:00:00,97.0,0.0,29.97,WNW,299,1.0,20.0,19,-99.99,,,-99.99,,2013-09-06 20:00:00,
2013-09-06 13:08:00,98.0,0.0,29.97,South,191,14.0,18.0,21,-99.99,,,-99.99,,2013-09-06 20:08:00,
2013-09-06 13:16:00,96.0,0.0,29.96,WNW,302,1.0,17.0,19,-99.99,,,-99.99,,2013-09-06 20:16:00,
2013-09-06 13:24:00,100.0,0.0,29.95,ESE,118,3.0,16.0,17,-99.99,,,-99.99,,2013-09-06 20:24:00,
2013-09-06 13:32:00,100.0,0.0,29.94,ESE,113,2.0,15.0,18,-99.99,,,-99.99,,2013-09-06 20:32:00,
2013-09-06 13:40:00,102.0,0.0,29.94,SE,140,7.0,14.0,19,-99.99,,,-99.99,,2013-09-06 20:40:00,
2013-09-06 13:48:00,100.0,0.0,29.93,South,170,12.0,23.0,17,-99.99,,,-99.99,,2013-09-06 20:48:00,
2013-09-06 13:56:00,99.0,0.0,29.93,SW,233,16.0,23.0,18,-99.99,,,-99.99,,2013-09-06 20:56:00,
2013-09-06 14:04:00,98.0,0.0,29.93,WSW,253,20.0,23.0,18,-99.99,,,-99.99,,2013-09-06 21:04:00,
2013-09-06 14:12:00,98.0,0.0,29.92,South,188,6.0,21.0,18,-99.99,,,-99.99,,2013-09-06 21:12:00,
2013-09-06 14:20:00,98.0,0.0,29.92,SW,234,5.0,23.0,18,-99.99,,,-99.99,,2013-09-06 21:20:00,
2013-09-06 14:28:00,99.0,0.0,29.91,South,188,10.0,22.0,17,-99.99,,,-99.99,,2013-09-06 21:28:00,
2013-09-06 14:36:00,102.0,0.0,29.91,SW,234,12.0,22.0,16,-99.99,,,-99.99,,2013-09-06 21:36:00,
2013-09-06 14:44:00,100.0,0.0,29.90,WSW,239,5.0,22.0,18,-99.99,,,-99.99,,2013-09-06 21:44:00,
2013-09-06 14:52:00,100.0,0.0,29.90,SW,233,14.0,18.0,17,-99.99,,,-99.99,,2013-09-06 21:52:00,
2013-09-06 15:00:00,98.0,0.0,29.89,SSW,192,14.0,22.0,18,-99.99,,,-99.99,,2013-09-06 22:00:00,
2013-09-06 15:08:00,99.0,0.0,29.89,SW,226,6.0,18.0,17,-99.99,,,-99.99,,2013-09-06 22:08:00,
2013-09-06 15:16:00,98.0,0.0,29.89,South,170,8.0,20.0,17,-99.99,,,-99.99,,2013-09-06 22:16:00,
2013-09-06 15:24:00,99.0,0.0,29.89,WSW,258,13.0,15.0,18,-99.99,,,-99.99,,2013-09-06 22:24:00,
2013-09-06 15:32:00,99.0,0.0,29.89,West,261,8.0,15.0,17,-99.99,,,-99.99,,2013-09-06 22:32:00,
2013-09-06 15:40:00,100.0,0.0,29.88,SW,226,10.0,16.0,18,-99.99,,,-99.99,,2013-09-06 22:40:00,
2013-09-06 15:48:00,100.0,0.0,29.88,East,86,0.0,20.0,20,-99.99,,,-99.99,,2013-09-06 22:48:00,
2013-09-06 15:56:00,99.0,0.0,29.88,SSW,208,13.0,23.0,19,-99.99,,,-99.99,,2013-09-06 22:56:00,
2013-09-06 16:04:00,100.0,0.0,29.88,WSW,247,12.0,17.0,17,-99.99,,,-99.99,,2013-09-06 23:04:00,
2013-09-06 16:12:00,99.0,0.0,29.87,WNW,289,5.0,17.0,19,-99.99,,,-99.99,,2013-09-06 23:12:00,
2013-09-06 16:20:00,99.0,0.0,29.87,WSW,258,10.0,15.0,19,-99.99,,,-99.99,,2013-09-06 23:20:00,
2013-09-06 16:28:00,99.0,0.0,29.87,SSE,162,10.0,18.0,18,-99.99,,,-99.99,,2013-09-06 23:28:00,
2013-09-06 16:36:00,100.0,0.0,29.87,SW,229,13.0,18.0,19,-99.99,,,-99.99,,2013-09-06 23:36:00,
2013-09-06 16:44:00,99.0,0.0,29.87,West,265,6.0,16.0,17,-99.99,,,-99.99,,2013-09-06 23:44:00,
2013-09-06 16:52:00,99.0,0.0,29.86,SSW,203,14.0,21.0,17,-99.99,,,-99.99,,2013-09-06 23:52:00,
2013-09-06 17:00:00,99.0,0.0,29.87,WSW,242,12.0,23.0,17,-99.99,,,-99.99,,2013-09-07 00:00:00,
2013-09-06 17:08:00,99.0,0.0,29.86,WSW,249,3.0,20.0,17,-99.99,,,-99.99,,2013-09-07 00:08:00,
2013-09-06 17:16:00,100.0,0.0,29.86,WSW,248,7.0,16.0,17,-99.99,,,-99.99,,2013-09-07 00:16:00,
2013-09-06 17:24:00,99.0,0.0,29.86,SSW,200,9.0,16.0,17,-99.99,,,-99.99,,2013-09-07 00:24:00,
2013-09-06 17:32:00,99.0,0.0,29.85,South,169,10.0,21.0,18,-99.99,,,-99.99,,2013-09-07 00:32:00,
2013-09-06 17:40:00,98.0,0.0,29.85,SSW,194,18.0,22.0,18,-99.99,,,-99.99,,2013-09-07 00:40:00,
2013-09-06 17:48:00,99.0,0.0,29.86,WSW,238,13.0,20.0,18,-99.99,,,-99.99,,2013-09-07 00:48:00,
2013-09-06 17:56:00,98.0,0.0,29.86,SSW,211,7.0,20.0,18,-99.99,,,-99.99,,2013-09-07 00:56:00,
2013-09-06 18:04:00,98.0,0.0,29.85,West,272,7.0,20.0,17,-99.99,,,-99.99,,2013-09-07 01:04:00,
2013-09-06 18:12:00,98.0,0.0,29.85,WSW,254,8.0,16.0,17,-99.99,,,-99.99,,2013-09-07 01:12:00,
2013-09-06 18:20:00,98.0,0.0,29.85,West,263,12.0,16.0,17,-99.99,,,-99.99,,2013-09-07 01:20:00,
2013-09-06 18:28:00,98.0,0.0,29.85,SW,228,18.0,18.0,17,-99.99,,,-99.99,,2013-09-07 01:28:00,
2013-09-06 18:36:00,97.0,0.0,29.85,WSW,237,14.0,18.0,17,-99.99,,,-99.99,,2013-09-07 01:36:00,
2013-09-06 18:44:00,96.0,0.0,29.85,WSW,253,14.0,20.0,18,-99.99,,,-99.99,,2013-09-07 01:44:00,
2013-09-06 18:52:00,96.0,0.0,29.85,WSW,252,13.0,17.0,18,-99.99,,,-99.99,,2013-09-07 01:52:00,
2013-09-06 19:00:00,95.0,0.0,29.86,WSW,248,14.0,21.0,18,-99.99,,,-99.99,,2013-09-07 02:00:00,
2013-09-06 19:08:00,94.0,0.0,29.86,WSW,253,16.0,20.0,19,-99.99,,,-99.99,,2013-09-07 02:08:00,
2013-09-06 19:16:00,94.0,0.0,29.86,WSW,254,9.0,20.0,20,-99.99,,,-99.99,,2013-09-07 02:16:00,
2013-09-06 19:24:00,94.0,0.0,29.86,West,260,12.0,17.0,18,-99.99,,,-99.99,,2013-09-07 02:24:00,
2013-09-06 19:32:00,93.0,0.0,29.87,WSW,250,14.0,17.0,18,-99.99,,,-99.99,,2013-09-07 02:32:00,
2013-09-06 19:40:00,93.0,0.0,29.87,West,271,10.0,17.0,18,-99.99,,,-99.99,,2013-09-07 02:40:00,
2013-09-06 19:48:00,93.0,0.0,29.88,WSW,245,12.0,15.0,19,-99.99,,,-99.99,,2013-09-07 02:48:00,
2013-09-06 19:56:00,92.0,0.0,29.88,WSW,242,12.0,16.0,19,-99.99,,,-99.99,,2013-09-07 02:56:00,
2013-09-06 20:04:00,92.0,0.0,29.88,West,261,9.0,16.0,18,-99.99,,,-99.99,,2013-09-07 03:04:00,
2013-09-06 20:12:00,91.0,0.0,29.89,WSW,245,9.0,13.0,19,-99.99,,,-99.99,,2013-09-07 03:12:00,
2013-09-06 20:20:00,91.0,0.0,29.89,WSW,243,12.0,13.0,22,-99.99,,,-99.99,,2013-09-07 03:20:00,
2013-09-06 20:28:00,91.0,0.0,29.89,WSW,240,12.0,15.0,20,-99.99,,,-99.99,,2013-09-07 03:28:00,
2013-09-06 20:36:00,91.0,0.0,29.89,WSW,257,8.0,14.0,21,-99.99,,,-99.99,,2013-09-07 03:36:00,
2013-09-06 20:44:00,90.0,0.0,29.90,WSW,242,8.0,12.0,20,-99.99,,,-99.99,,2013-09-07 03:44:00,
2013-09-06 20:52:00,90.0,0.0,29.90,SW,233,7.0,12.0,21,-99.99,,,-99.99,,2013-09-07 03:52:00,
2013-09-06 21:00:00,90.0,0.0,29.90,WSW,241,8.0,12.0,20,-99.99,,,-99.99,,2013-09-07 04:00:00,
2013-09-06 21:04:00,90.0,0.0,29.90,WSW,244,9.0,12.0,21,-99.99,,,-99.99,,2013-09-07 04:04:00,
2013-09-06 21:08:00,90.0,0.0,29.90,WSW,244,9.0,12.0,21,-99.99,,,-99.99,,2013-09-07 04:08:00,
2013-09-06 21:16:00,90.0,0.0,29.90,WSW,237,8.0,12.0,20,-99.99,,,-99.99,,2013-09-07 04:16:00,
2013-09-06 21:24:00,90.0,0.0,29.90,West,263,6.0,10.0,22,-99.99,,,-99.99,,2013-09-07 04:24:00,
2013-09-06 21:32:00,89.0,0.0,29.90,West,270,9.0,12.0,21,-99.99,,,-99.99,,2013-09-07 04:32:00,
2013-09-06 21:40:00,89.0,0.0,29.90,West,265,7.0,13.0,21,-99.99,,,-99.99,,2013-09-07 04:40:00,
2013-09-06 21:44:00,89.0,0.0,29.90,West,262,7.0,13.0,23,-99.99,,,-99.99,,2013-09-07 04:44:00,
2013-09-06 21:48:00,89.0,0.0,29.91,WSW,254,8.0,13.0,22,-99.99,,,-99.99,,2013-09-07 04:48:00,
2013-09-06 21:56:00,88.0,0.0,29.91,West,265,5.0,8.0,20,-99.99,,,-99.99,,2013-09-07 04:56:00,
2013-09-06 22:04:00,88.0,0.0,29.91,WSW,245,3.0,8.0,23,-99.99,,,-99.99,,2013-09-07 05:04:00,
2013-09-06 22:12:00,86.0,0.0,29.92,SSE,155,6.0,8.0,22,-99.99,,,-99.99,,2013-09-07 05:12:00,
2013-09-06 22:20:00,86.0,0.0,29.92,SE,141,10.0,13.0,25,-99.99,,,-99.99,,2013-09-07 05:20:00,
2013-09-06 22:28:00,86.0,0.0,29.92,SSE,167,12.0,15.0,29,-99.99,,,-99.99,,2013-09-07 05:28:00,
2013-09-06 22:36:00,85.0,0.0,29.93,SSE,157,12.0,24.0,31,-99.99,,,-99.99,,2013-09-07 05:36:00,
2013-09-06 22:44:00,84.0,0.0,29.93,SSW,197,7.0,20.0,34,-99.99,,,-99.99,,2013-09-07 05:44:00,
2013-09-06 22:52:00,84.0,0.0,29.93,SE,126,7.0,15.0,35,-99.99,,,-99.99,,2013-09-07 05:52:00,
2013-09-06 23:01:00,84.0,0.0,29.93,SE,145,10.0,15.0,37,-99.99,,,-99.99,,2013-09-07 06:01:00,
2013-09-06 23:08:00,84.0,0.0,29.93,SSE,149,7.0,13.0,35,-99.99,,,-99.99,,2013-09-07 06:08:00,
2013-09-06 23:16:00,84.0,0.0,29.93,ESE,119,7.0,13.0,34,-99.99,,,-99.99,,2013-09-07 06:16:00,
2013-09-06 23:24:00,83.0,0.0,29.93,SSE,147,8.0,12.0,34,-99.99,,,-99.99,,2013-09-07 06:24:00,
2013-09-06 23:32:00,83.0,0.0,29.93,SE,132,8.0,12.0,33,-99.99,,,-99.99,,2013-09-07 06:32:00,
2013-09-06 23:40:00,83.0,0.0,29.93,SE,131,6.0,12.0,33,-99.99,,,-99.99,,2013-09-07 06:40:00,
2013-09-06 23:48:00,83.0,0.0,29.93,SE,126,9.0,13.0,33,-99.99,,,-99.99,,2013-09-07 06:48:00,
2013-09-06 23:56:00,82.0,0.0,29.94,SE,146,8.0,13.0,32,-99.99,,,-99.99,,2013-09-07 06:56:00,